Hourly Data Report for November 09, 2019

All times are specified in Local Standard Time (LST). Add 1 hour to adjust for Daylight Saving Time where and when it is observed.

SATURNA ISLAND CS
BRITISH COLUMBIA
Current Station Operator: ECCC - MSC

48°47'02.067" N
123°02'41.082" W
24.40 m
1017101
71473
WEZ

Download Data

Hourly Data (November 2019)
Hourly Data Report for November 9, 2019
TIME Temp Definition
°C
Dew Point Definition
°C
Rel Hum Definition
%
Wind Dir Definition
10's deg

Wind Spd Definition
km/h
Visibility Definition
km
Stn Press Definition
kPa
Hmdx Definition


Wind Chill Definition


Weather Definition


00:00 8.9 7.9 94 24 13   101.83     LegendNANA
01:00 8.8 8.0 95 26 6   101.91     LegendNANA
02:00 9.1 8.4 96 23 12   101.91     LegendNANA
03:00 9.1 8.5 96 23 7   101.91     LegendNANA
04:00 9.2 8.6 96 22 10   101.88     LegendNANA
05:00 9.3 8.7 96 24 11   101.87     LegendNANA
06:00 9.3 8.7 96 25 5   101.90     LegendNANA
07:00 9.3 8.7 96 24 6   101.92     LegendNANA
08:00 9.4 8.9 97 25 2   101.97     LegendNANA
09:00 9.8 9.2 96 18 5   101.97     LegendNANA
10:00 9.7 9.0 95 16 6   102.01     LegendNANA
11:00 9.9 9.3 96 16 2   102.04     LegendNANA
12:00 9.9 9.2 96 9 6   101.97     LegendNANA
13:00 10.1 9.4 96   0   101.93     LegendNANA
14:00 10.2 9.4 95 25 3   101.93     LegendNANA
15:00 9.9 9.3 96 23 7   101.94     LegendNANA
16:00 9.8 9.3 96 22 3   101.93     LegendNANA
17:00 9.7 9.2 97 2 7   101.95     LegendNANA
18:00 9.6 9.2 97 6 6   101.95     LegendNANA
19:00 9.6 9.2 98 6 4   101.99     LegendNANA
20:00 9.5 9.2 98 6 4   101.96     LegendNANA
21:00 9.6 9.3 98 7 5   101.98     LegendNANA
22:00 9.7 9.4 98 3 5   102.03     LegendNANA
23:00 9.6 9.3 98 32 3   102.03     LegendNANA

Notes on Data Quality.

Legend

  • E = Estimated
  • M = Missing
  • NA = Not Available
Date modified: